TimePST,TemperatureF,Dew PointF,Humidity,Sea Level PressureIn,VisibilityMPH,Wind Direction,Wind SpeedMPH,Gust SpeedMPH,PrecipitationIn,Events,Conditions,WindDirDegrees,DateUTC
12:55 AM,48.9,43.0,80,30.22,6.0,Calm,Calm,-,0.00,,Haze,0,2013-01-06 08:55:00
1:31 AM,48.2,44.6,87,30.21,6.0,West,3.5,-,0.00,,Overcast,280,2013-01-06 09:31:00
1:55 AM,48.9,45.0,86,30.22,4.0,East,3.5,-,0.00,Rain,Light Rain,90,2013-01-06 09:55:00
2:32 AM,48.2,44.6,87,30.20,5.0,East,4.6,-,0.01,,Overcast,80,2013-01-06 10:32:00
2:55 AM,46.9,44.1,90,30.22,6.0,NE,4.6,-,0.01,,Overcast,50,2013-01-06 10:55:00
3:22 AM,46.4,42.8,87,30.19,7.0,NE,4.6,-,N/A,,Overcast,50,2013-01-06 11:22:00
4:53 AM,46.4,42.8,87,30.18,5.0,Calm,Calm,-,N/A,,Scattered Clouds,0,2013-01-06 12:53:00
4:55 AM,46.9,43.0,86,30.21,6.0,Calm,Calm,-,N/A,,Scattered Clouds,0,2013-01-06 12:55:00
5:06 AM,44.6,42.8,93,30.17,1.8,Calm,Calm,-,N/A,,Partly Cloudy,0,2013-01-06 13:06:00
5:08 AM,44.6,41.0,87,30.17,1.0,Calm,Calm,-,N/A,,Mist,0,2013-01-06 13:08:00
5:29 AM,44.6,39.2,81,30.17,0.2,Calm,Calm,-,N/A,Fog,Fog,0,2013-01-06 13:29:00
5:52 AM,42.8,39.2,87,30.18,1.0,NE,4.6,-,N/A,,Scattered Clouds,40,2013-01-06 13:52:00
5:55 AM,42.1,39.0,89,30.21,2.5,NE,3.5,-,N/A,,Scattered Clouds,40,2013-01-06 13:55:00
6:55 AM,43.0,41.0,93,30.21,3.0,Calm,Calm,-,0.00,,Mostly Cloudy,0,2013-01-06 14:55:00
7:18 AM,42.8,39.2,87,30.18,1.5,Calm,Calm,-,N/A,,Clear,0,2013-01-06 15:18:00
7:25 AM,42.8,39.2,87,30.18,6.0,Calm,Calm,-,N/A,,Clear,0,2013-01-06 15:25:00
7:55 AM,46.0,42.1,86,30.22,6.0,ENE,3.5,-,N/A,,Mostly Cloudy,60,2013-01-06 15:55:00
8:00 AM,46.4,42.8,87,30.19,6.0,East,3.5,-,N/A,,Scattered Clouds,90,2013-01-06 16:00:00
8:55 AM,50.0,45.0,83,30.22,9.0,Calm,Calm,-,N/A,,Partly Cloudy,0,2013-01-06 16:55:00
9:55 AM,53.1,46.0,77,30.23,10.0,SW,3.5,-,N/A,,Clear,220,2013-01-06 17:55:00
10:55 AM,55.9,45.0,67,30.20,10.0,WSW,10.4,-,N/A,,Partly Cloudy,240,2013-01-06 18:55:00
11:55 AM,57.0,42.1,57,30.17,10.0,West,16.1,-,N/A,,Clear,270,2013-01-06 19:55:00
12:55 PM,57.0,44.1,62,30.14,10.0,West,13.8,-,N/A,,Scattered Clouds,270,2013-01-06 20:55:00
1:55 PM,55.9,45.0,67,30.11,10.0,West,16.1,23.0,0.00,Rain,Light Rain,260,2013-01-06 21:55:00
2:55 PM,55.0,46.0,72,30.10,10.0,SW,6.9,-,0.00,,Scattered Clouds,220,2013-01-06 22:55:00
3:55 PM,55.0,43.0,64,30.09,10.0,West,11.5,-,N/A,,Scattered Clouds,270,2013-01-06 23:55:00
4:55 PM,54.0,45.0,72,30.08,10.0,West,11.5,-,N/A,,Mostly Cloudy,270,2013-01-07 00:55:00
5:55 PM,53.1,43.0,69,30.06,10.0,Calm,Calm,-,N/A,,Clear,0,2013-01-07 01:55:00
6:55 PM,50.0,43.0,77,30.08,10.0,ENE,3.5,-,N/A,,Scattered Clouds,70,2013-01-07 02:55:00
7:55 PM,46.9,41.0,80,30.07,10.0,Calm,Calm,-,N/A,,Clear,0,2013-01-07 03:55:00
8:55 PM,46.0,41.0,83,30.07,10.0,Calm,Calm,-,N/A,,Clear,0,2013-01-07 04:55:00
9:55 PM,46.0,41.0,83,30.07,10.0,Calm,Calm,-,N/A,,Scattered Clouds,0,2013-01-07 05:55:00
10:55 PM,44.1,39.0,82,30.08,10.0,NW,3.5,-,N/A,,Clear,310,2013-01-07 06:55:00
11:55 PM,45.0,39.9,82,30.08,10.0,NNE,3.5,-,N/A,,Clear,30,2013-01-07 07:55:00